Weather reports worldwide

Advertisment
Redesdale Camp, United Kingdom (3230): temperature & dewpoint: 20.05.2019 01:00:00 - 26.05.2019 01:00:00 (BST)Redesdale Camp, United Kingdom (3230): temperature -20cm & temperature -100cm: 20.05.2019 01:00:00 - 26.05.2019 01:00:00 (BST)Redesdale Camp, United Kingdom (3230): wind speed & gusts: 20.05.2019 01:00:00 - 26.05.2019 01:00:00 (BST)Redesdale Camp, United Kingdom (3230): wind direction: 20.05.2019 01:00:00 - 26.05.2019 01:00:00 (BST)Redesdale Camp, United Kingdom (3230): reduced air pressure: 20.05.2019 01:00:00 - 26.05.2019 01:00:00 (BST)Redesdale Camp, United Kingdom (3230): visibility: 20.05.2019 01:00:00 - 26.05.2019 01:00:00 (BST)Redesdale Camp, United Kingdom (3230): precipitation: 20.05.2019 01:00:00 - 26.05.2019 01:00:00 (BST)
Date & Time tt [°C] td [°C] tt -20cm [°C] tt -100cm [°C] ff [km/h] ff [kn] fx [km/h] fx [kn] dd ppp [hPa] vv [km] rr [mm]
26.05.2019 01:00:00 - - - - - - - - - - - -
26.05.2019 00:00:00 13,2 12,3 - - 9 5 - - W 1010,9 40 0,0
25.05.2019 23:00:00 13,1 12,4 - - 11 6 - - WSW 1011,4 21 0,0
25.05.2019 22:00:00 12,3 11,9 - - 11 6 - - WSW 1011,8 5 0,0
25.05.2019 21:00:00 12,0 11,2 - - 13 7 - - WSW 1012,3 15 0,0
25.05.2019 20:00:00 11,6 10,6 - - 15 8 - - WSW 1012,8 18 0,0
25.05.2019 19:00:00 11,1 10,3 - - 13 7 - - WSW 1013,6 18 0,0
25.05.2019 18:00:00 10,8 9,7 - - 13 7 - - WSW 1014,4 50 0,2
25.05.2019 17:00:00 10,9 9,4 - - 13 7 - - WSW 1015,0 14 0,4
25.05.2019 16:00:00 11,4 9,6 - - 11 6 - - SW 1015,7 17 0,0
25.05.2019 15:00:00 12,2 8,8 - - 18 10 - - SW 1015,7 30 0,0
25.05.2019 14:00:00 13,3 7,5 - - 16 9 - - SW 1015,9 35 0,0
25.05.2019 13:00:00 13,9 6,8 - - 16 9 - - SW 1016,1 75 0,0
25.05.2019 12:00:00 13,6 6,2 - - 13 7 - - SW 1016,5 55 0,0
25.05.2019 11:00:00 14,4 5,8 - - 11 6 - - SW 1016,7 70 0,0
25.05.2019 10:00:00 13,5 7,5 12,7 10,4 11 6 - - S 1017,1 55 0,0
25.05.2019 09:00:00 12,1 8,3 - - 4 2 - - ESE 1017,6 60 0,0
25.05.2019 08:00:00 9,0 6,7 - - 4 2 - - SE 1017,9 65 0,0
25.05.2019 07:00:00 6,8 5,3 - - 2 1 - - ESE 1018,3 45 0,0
25.05.2019 06:00:00 5,7 4,6 - - 4 2 - - W 1018,5 50 0,0
25.05.2019 05:00:00 5,6 4,0 - - 5 3 - - WNW 1018,2 50 0,0
25.05.2019 04:00:00 5,5 3,7 - - 8 4 - - NNW 1018,2 40 0,0
25.05.2019 03:00:00 7,0 4,4 - - 13 7 - - N 1017,8 55 0,0
25.05.2019 02:00:00 6,7 4,3 - - 8 4 - - N 1018,0 60 0,0
25.05.2019 01:00:00 8,1 5,0 - - 4 2 - - NW 1017,6 60 0,0
25.05.2019 00:00:00 8,1 5,0 - - 4 2 - - NNW 1017,4 75 0,0
24.05.2019 23:00:00 7,8 4,5 - - 5 3 - - N 1017,4 75 0,0
24.05.2019 22:00:00 9,7 4,5 - - 2 1 - - E 1016,9 75 0,0
24.05.2019 21:00:00 12,3 4,8 - - 8 4 - - NW 1016,1 75 0,0
24.05.2019 20:00:00 13,9 4,8 - - 8 4 - - NW 1015,5 75 0,0
24.05.2019 19:00:00 15,7 9,3 - - 8 4 - - ESE 1014,9 75 0,0
24.05.2019 18:00:00 15,5 9,0 - - 13 7 - - SE 1014,8 75 0,0
24.05.2019 17:00:00 15,4 9,1 - - 15 8 - - ESE 1014,8 75 0,0
24.05.2019 16:00:00 18,2 10,5 - - 9 5 - - ESE 1014,6 75 0,0
24.05.2019 15:00:00 19,3 7,6 - - 8 4 - - NW 1014,5 75 0,0
24.05.2019 14:00:00 18,4 6,7 - - 5 3 - - WNW 1014,6 75 0,0
24.05.2019 13:00:00 16,8 6,2 - - 8 4 - - W 1014,9 75 0,0
24.05.2019 12:00:00 16,9 6,4 - - 9 5 - - NNW 1014,7 75 0,0
24.05.2019 11:00:00 15,5 6,4 - - 11 6 - - NNW 1014,8 60 0,0
24.05.2019 10:00:00 13,5 6,2 12,2 10,2 15 8 - - WSW 1015,1 75 0,0
24.05.2019 09:00:00 12,6 5,7 - - 8 4 - - WNW 1015,1 75 0,0
24.05.2019 08:00:00 11,1 5,3 - - 9 5 - - WNW 1014,8 75 0,0
24.05.2019 07:00:00 9,2 5,6 - - 5 3 - - W 1014,8 75 0,0
24.05.2019 06:00:00 5,4 3,9 - - 2 1 - - NNW 1015,2 75 0,0
24.05.2019 05:00:00 5,8 3,7 - - 2 1 - - W 1014,9 75 0,0
24.05.2019 04:00:00 5,6 3,3 - - 5 3 - - E 1014,8 75 0,0
24.05.2019 03:00:00 6,2 3,9 - - 5 3 - - W 1014,9 75 0,0
24.05.2019 02:00:00 6,4 3,4 - - 4 2 - - WNW 1014,8 75 0,0
24.05.2019 01:00:00 6,2 3,0 - - 5 3 - - WSW 1014,3 75 0,0
24.05.2019 00:00:00 7,6 3,5 - - 8 4 - - W 1014,2 75 0,0
23.05.2019 23:00:00 8,8 3,5 - - 4 2 - - WSW 1014,0 75 0,0
23.05.2019 22:00:00 10,7 4,2 - - 9 5 - - W 1013,6 75 0,0
23.05.2019 21:00:00 12,4 4,1 - - 8 4 - - WSW 1013,2 75 0,0
23.05.2019 20:00:00 14,1 4,0 - - 16 9 - - WSW 1012,7 75 0,0
23.05.2019 19:00:00 15,7 2,4 - - 16 9 - - WSW 1012,1 75 0,0
23.05.2019 18:00:00 16,9 4,5 - - 18 10 - - WSW 1012,0 75 0,0
23.05.2019 17:00:00 16,8 5,5 - - 24 13 48 26 WSW 1011,7 75 0,0
23.05.2019 16:00:00 17,4 5,8 - - 22 12 - - WSW 1011,8 75 0,0
23.05.2019 15:00:00 16,7 4,7 - - 22 12 - - WSW 1012,1 75 0,0
23.05.2019 14:00:00 17,0 5,5 - - 18 10 52 28 WSW 1012,1 75 0,0
23.05.2019 13:00:00 16,5 4,7 - - 16 9 - - WSW 1012,5 75 0,0
23.05.2019 12:00:00 15,0 3,8 - - 18 10 - - WSW 1013,2 75 0,0
23.05.2019 11:00:00 13,9 3,2 - - 13 7 - - WSW 1013,6 75 0,0
23.05.2019 10:00:00 12,9 2,8 12,0 10,2 16 9 - - WSW 1013,9 75 0,0
23.05.2019 09:00:00 11,1 2,5 - - 11 6 - - WSW 1014,2 75 0,0
23.05.2019 08:00:00 9,7 3,9 - - 9 5 - - W 1014,5 75 0,0
23.05.2019 07:00:00 8,3 4,7 - - 4 2 - - WSW 1014,7 75 0,0
23.05.2019 06:00:00 4,6 3,4 - - 4 2 - - E 1015,0 75 0,0
23.05.2019 05:00:00 3,6 2,2 - - 2 1 - - NE 1015,1 75 0,0
23.05.2019 04:00:00 5,0 3,5 - - 5 3 - - N 1015,3 75 0,0
23.05.2019 03:00:00 4,9 3,3 - - 4 2 - - NNE 1015,5 75 0,0
23.05.2019 02:00:00 6,3 3,6 - - 9 5 - - WSW 1015,2 75 0,0
23.05.2019 01:00:00 5,8 3,4 - - 4 2 - - NNE 1015,8 75 0,0
23.05.2019 00:00:00 6,1 2,8 - - 4 2 - - SSW 1016,0 75 0,0
22.05.2019 23:00:00 6,8 3,6 - - 4 2 - - WNW 1016,0 75 0,0
22.05.2019 22:00:00 7,5 2,3 - - 2 1 - - E 1016,0 75 0,0
22.05.2019 21:00:00 11,3 4,2 - - 4 2 - - WNW 1015,4 75 0,0
22.05.2019 20:00:00 13,4 4,9 - - 9 5 - - WNW 1015,0 75 0,0
22.05.2019 19:00:00 13,6 5,1 - - 8 4 - - WNW 1015,2 75 0,0
22.05.2019 18:00:00 14,4 5,1 - - 16 9 - - SW 1015,1 75 0,0
22.05.2019 17:00:00 14,3 5,4 - - 11 6 - - WSW 1015,4 75 0,0
22.05.2019 16:00:00 14,0 4,7 - - 13 7 - - WSW 1015,6 75 0,0
22.05.2019 15:00:00 15,0 4,3 - - 11 6 - - WNW 1015,5 75 0,0
22.05.2019 14:00:00 14,5 4,5 - - 11 6 - - NW 1015,8 75 0,0
22.05.2019 13:00:00 14,7 4,5 - - 11 6 - - NW 1015,9 75 0,0
22.05.2019 12:00:00 15,0 4,2 - - 9 5 - - WNW 1016,0 75 0,0
22.05.2019 11:00:00 13,5 3,4 - - 9 5 - - WNW 1016,3 65 0,0
22.05.2019 10:00:00 12,5 4,0 12,0 10,2 9 5 - - W 1016,6 75 0,0
22.05.2019 09:00:00 11,6 4,1 - - 8 4 - - WNW 1016,9 70 0,0
22.05.2019 08:00:00 9,7 4,9 - - 4 2 - - W 1017,4 75 0,0
22.05.2019 07:00:00 6,5 5,3 - - 4 2 - - W 1018,0 75 0,0
22.05.2019 06:00:00 2,4 2,3 - - 4 2 - - SE 1018,5 75 0,0
22.05.2019 05:00:00 1,9 1,6 - - 4 2 - - NW 1018,6 75 0,0
22.05.2019 04:00:00 2,9 2,6 - - 2 1 - - NNE 1018,8 60 0,0
22.05.2019 03:00:00 2,6 2,3 - - 4 2 - - W 1019,0 35 0,0
22.05.2019 02:00:00 2,4 2,2 - - 4 2 - - N 1019,1 60 0,0
22.05.2019 01:00:00 2,7 2,4 - - 2 1 - - NNW 1019,3 7 0,0
22.05.2019 00:00:00 3,3 2,8 - - 4 2 - - N 1019,3 17 0,0
21.05.2019 23:00:00 4,7 4,1 - - 4 2 - - N 1019,2 35 0,0
21.05.2019 22:00:00 6,2 5,2 - - 9 5 - - N 1019,1 28 0,0
21.05.2019 21:00:00 9,4 8,2 - - 11 6 - - N 1018,5 75 0,0
21.05.2019 20:00:00 10,6 8,2 - - 4 2 - - NNE 1017,9 75 0,0
21.05.2019 19:00:00 11,6 9,4 - - 15 8 - - E 1017,8 75 0,0
21.05.2019 18:00:00 11,5 9,5 - - 13 7 - - E 1017,8 75 0,0
21.05.2019 17:00:00 12,7 9,5 - - 8 4 - - NE 1017,7 75 0,0
21.05.2019 16:00:00 12,9 9,7 - - 9 5 - - NNE 1017,6 29 1,4
21.05.2019 15:00:00 13,1 8,0 - - 9 5 - - NNW 1017,9 75 0,0
21.05.2019 14:00:00 14,2 6,7 - - 5 3 - - SSW 1017,7 75 0,0
21.05.2019 13:00:00 14,5 9,1 - - 13 7 - - N 1017,6 75 0,0
21.05.2019 12:00:00 12,6 8,3 - - 13 7 - - N 1018,1 75 0,0
21.05.2019 11:00:00 12,0 7,8 - - 15 8 - - N 1018,1 75 0,0
21.05.2019 10:00:00 11,7 7,6 12,0 10,0 13 7 - - NNW 1017,8 75 0,0
21.05.2019 09:00:00 11,3 8,0 - - 16 9 - - NNW 1017,6 75 0,0
21.05.2019 08:00:00 10,2 8,0 - - 13 7 - - NW 1017,1 75 0,0
21.05.2019 07:00:00 5,1 4,9 - - 2 1 - - W 1017,4 14 0,0
21.05.2019 06:00:00 3,5 3,3 - - 2 1 - - NNE 1017,4 0,5 0,0
21.05.2019 05:00:00 2,1 1,8 - - 5 3 - - NNW 1017,2 60 0,0
21.05.2019 04:00:00 2,7 2,3 - - 2 1 - - WNW 1017,0 17 0,0
21.05.2019 03:00:00 3,4 3,0 - - 0 0 - - N 1016,7 14 0,0
21.05.2019 02:00:00 3,8 3,2 - - 5 3 - - SE 1016,5 28 0,0
21.05.2019 01:00:00 5,3 4,8 - - 4 2 - - NW 1016,2 75 0,0
21.05.2019 00:00:00 5,3 4,7 - - 4 2 - - WNW 1016,2 75 0,0
20.05.2019 23:00:00 6,2 4,6 - - 8 4 - - N 1016,0 75 0,0
20.05.2019 22:00:00 7,6 5,2 - - 8 4 - - N 1015,7 75 0,0
20.05.2019 21:00:00 10,2 6,7 - - 5 3 - - NNE 1014,9 75 0,0
20.05.2019 20:00:00 12,6 7,7 - - 8 4 - - NW 1014,3 75 0,0
20.05.2019 19:00:00 12,7 7,4 - - 4 2 - - NW 1014,0 75 0,0
20.05.2019 18:00:00 14,2 6,9 - - 4 2 - - W 1013,7 75 0,0
20.05.2019 17:00:00 14,1 7,4 - - 5 3 - - WNW 1013,5 75 0,0
20.05.2019 16:00:00 14,3 8,1 - - 4 2 - - SW 1013,2 75 0,0
20.05.2019 15:00:00 13,8 7,9 - - 8 4 - - NNW 1013,2 75 0,0
20.05.2019 14:00:00 15,0 7,8 - - 5 3 - - NNW 1012,9 75 0,0
20.05.2019 13:00:00 14,4 7,3 - - 5 3 - - NW 1012,9 75 0,0
20.05.2019 12:00:00 13,8 7,4 - - 9 5 - - N 1012,8 75 0,0
20.05.2019 11:00:00 13,2 7,0 - - 8 4 - - NW 1012,8 75 0,0
20.05.2019 10:00:00 12,9 7,3 12,0 9,9 5 3 - - NW 1012,9 75 0,0
20.05.2019 09:00:00 11,7 7,7 - - 5 3 - - W 1012,9 75 0,0
20.05.2019 08:00:00 10,2 8,8 - - 4 2 - - W 1012,7 60 0,0
20.05.2019 07:00:00 8,6 8,3 - - 2 1 - - W 1012,5 28 0,0
20.05.2019 06:00:00 8,0 7,6 - - 0 0 - - N 1012,3 16 0,0
20.05.2019 05:00:00 8,1 7,6 - - 2 1 - - W 1012,2 30 0,0
20.05.2019 04:00:00 8,2 7,8 - - 2 1 - - N 1012,0 25 0,0
20.05.2019 03:00:00 8,1 7,4 - - 2 1 - - NNE 1012,1 23 0,0
20.05.2019 02:00:00 8,3 7,6 - - 4 2 - - NNW 1012,2 30 0,0
20.05.2019 01:00:00 7,9 7,1 - - 2 1 - - N 1012,4 21 0,0

tt = temperature
td = dewpoint
tt -20cm = temperature -20cm
tt -100cm = temperature -100cm
ff = wind speed
fx = gusts
dd = wind direction
ppp = reduced air pressure
vv = visibility
rr = precipitation

Next stations